Terminal Aerodrome Forecast
Issued by NWS

Home | Current Version | Previous Version | Text Only | Print | Product List | Glossary On
Versions: 1 2 3 4 5 6 7 8 9 10 11 12 13 14 15 16
000
FTUS41 KBGM 290500
TAFRME
TAF
KRME 290531Z 2906/3006 29006KT P6SM OVC035
      TEMPO 2908/2912 OVC025
     FM291500 30010KT P6SM OVC035=

USA.gov is the U.S. government's official web portal to all federal, state and local government web resources and services.